owner,sensor,date,latitude,longitude,vertical_datum,wind_speed,wind_to_direction,wind_speed_of_gust,qcFlag 
WAVCIS,ioos:station:WAVCIS:CSI06:1,2012-12-01T00:00:00Z,28.8667,-90.4833,10.0,8.23,54.0,,'11111222,11111222,99999999' 
WAVCIS,ioos:station:WAVCIS:CSI06:1,2012-12-01T01:00:00Z,28.8667,-90.4833,10.0,7.51,53.0,,'11111222,11111222,99999999' 
WAVCIS,ioos:station:WAVCIS:CSI06:1,2012-12-01T02:00:00Z,28.8667,-90.4833,10.0,7.6,58.0,,'11111222,11111222,99999999' 
WAVCIS,ioos:station:WAVCIS:CSI06:1,2012-12-01T03:00:00Z,28.8667,-90.4833,10.0,7.44,62.0,,'11111222,11111222,99999999' 
WAVCIS,ioos:station:WAVCIS:CSI06:1,2012-12-01T04:00:00Z,28.8667,-90.4833,10.0,7.86,71.0,,'11111222,11111222,99999999' 
WAVCIS,ioos:station:WAVCIS:CSI06:1,2012-12-01T05:00:00Z,28.8667,-90.4833,10.0,8.43,76.0,,'11111222,11111222,99999999' 
WAVCIS,ioos:station:WAVCIS:CSI06:1,2012-12-01T06:00:00Z,28.8667,-90.4833,10.0,9.4,84.0,,'11111222,11111222,99999999' 
WAVCIS,ioos:station:WAVCIS:CSI06:1,2012-12-01T07:00:00Z,28.8667,-90.4833,10.0,8.42,89.0,,'11111222,11111222,99999999' 
WAVCIS,ioos:station:WAVCIS:CSI06:1,2012-12-01T08:00:00Z,28.8667,-90.4833,10.0,7.9,91.0,,'11111222,11111222,99999999' 
WAVCIS,ioos:station:WAVCIS:CSI06:1,2012-12-01T09:00:00Z,28.8667,-90.4833,10.0,7.72,93.0,,'11111222,11111222,99999999' 
WAVCIS,ioos:station:WAVCIS:CSI06:1,2012-12-01T10:00:00Z,28.8667,-90.4833,10.0,7.73,92.0,,'11111222,11111222,99999999' 
WAVCIS,ioos:station:WAVCIS:CSI06:1,2012-12-01T11:00:00Z,28.8667,-90.4833,10.0,6.834,89.0,,'11111222,11111222,99999999' 
WAVCIS,ioos:station:WAVCIS:CSI06:1,2012-12-01T12:00:00Z,28.8667,-90.4833,10.0,6.53,79.0,,'11111222,11111222,99999999' 
WAVCIS,ioos:station:WAVCIS:CSI06:1,2012-12-01T13:00:00Z,28.8667,-90.4833,10.0,6.348,69.0,,'11111222,11111222,99999999' 
WAVCIS,ioos:station:WAVCIS:CSI06:1,2012-12-01T14:00:00Z,28.8667,-90.4833,10.0,6.564,66.0,,'11111222,11111222,99999999' 
WAVCIS,ioos:station:WAVCIS:CSI06:1,2012-12-01T15:00:00Z,28.8667,-90.4833,10.0,6.277,62.0,,'11111222,11111222,99999999' 
WAVCIS,ioos:station:WAVCIS:CSI06:1,2012-12-01T16:00:00Z,28.8667,-90.4833,10.0,6.155,72.0,,'11111222,11111222,99999999' 
WAVCIS,ioos:station:WAVCIS:CSI06:1,2012-12-01T17:00:00Z,28.8667,-90.4833,10.0,5.753,80.0,,'11111222,11111222,99999999' 
WAVCIS,ioos:station:WAVCIS:CSI06:1,2012-12-01T18:00:00Z,28.8667,-90.4833,10.0,3.466,122.0,,'11111222,11111222,99999999' 
WAVCIS,ioos:station:WAVCIS:CSI06:1,2012-12-01T19:00:00Z,28.8667,-90.4833,10.0,5.246,124.0,,'11111222,11111222,99999999' 
WAVCIS,ioos:station:WAVCIS:CSI06:1,2012-12-01T20:00:00Z,28.8667,-90.4833,10.0,4.851,153.0,,'11111222,11111222,99999999' 
WAVCIS,ioos:station:WAVCIS:CSI06:1,2012-12-01T21:00:00Z,28.8667,-90.4833,10.0,7.79,96.0,,'11111222,11111222,99999999' 
WAVCIS,ioos:station:WAVCIS:CSI06:1,2012-12-01T22:00:00Z,28.8667,-90.4833,10.0,9.86,94.0,,'11111222,11111222,99999999' 
WAVCIS,ioos:station:WAVCIS:CSI06:1,2012-12-01T23:00:00Z,28.8667,-90.4833,10.0,2.936,46.0,,'11111222,11111222,99999999' 
WAVCIS,ioos:station:WAVCIS:CSI06:1,2012-12-02T00:00:00Z,28.8667,-90.4833,10.0,6.463,117.0,,'11111222,11111222,99999999' 
WAVCIS,ioos:station:WAVCIS:CSI06:1,2012-12-02T01:00:00Z,28.8667,-90.4833,10.0,6.408,119.0,,'11111222,11111222,99999999' 
WAVCIS,ioos:station:WAVCIS:CSI06:1,2012-12-02T02:00:00Z,28.8667,-90.4833,10.0,7.06,122.0,,'11111222,11111222,99999999' 
WAVCIS,ioos:station:WAVCIS:CSI06:1,2012-12-02T03:00:00Z,28.8667,-90.4833,10.0,7.97,124.0,,'11111222,11111222,99999999' 
WAVCIS,ioos:station:WAVCIS:CSI06:1,2012-12-02T04:00:00Z,28.8667,-90.4833,10.0,8.11,127.0,,'11111222,11111222,99999999' 
WAVCIS,ioos:station:WAVCIS:CSI06:1,2012-12-02T05:00:00Z,28.8667,-90.4833,10.0,7.98,132.0,,'11111222,11111222,99999999' 
WAVCIS,ioos:station:WAVCIS:CSI06:1,2012-12-02T06:00:00Z,28.8667,-90.4833,10.0,8.03,128.0,,'11111222,11111222,99999999' 
WAVCIS,ioos:station:WAVCIS:CSI06:1,2012-12-02T07:00:00Z,28.8667,-90.4833,10.0,7.72,129.0,,'11111222,11111222,99999999' 
WAVCIS,ioos:station:WAVCIS:CSI06:1,2012-12-02T08:00:00Z,28.8667,-90.4833,10.0,7.46,133.0,,'11111222,11111222,99999999' 
WAVCIS,ioos:station:WAVCIS:CSI06:1,2012-12-02T09:00:00Z,28.8667,-90.4833,10.0,7.03,135.0,,'11111222,11111222,99999999' 
WAVCIS,ioos:station:WAVCIS:CSI06:1,2012-12-02T10:00:00Z,28.8667,-90.4833,10.0,6.09,140.0,,'11111222,11111222,99999999' 
WAVCIS,ioos:station:WAVCIS:CSI06:1,2012-12-02T11:00:00Z,28.8667,-90.4833,10.0,5.122,148.0,,'11111222,11111222,99999999' 
WAVCIS,ioos:station:WAVCIS:CSI06:1,2012-12-02T12:00:00Z,28.8667,-90.4833,10.0,4.07,146.0,,'11111222,11111222,99999999' 
WAVCIS,ioos:station:WAVCIS:CSI06:1,2012-12-02T13:00:00Z,28.8667,-90.4833,10.0,4.282,137.0,,'11111222,11111222,99999999' 
WAVCIS,ioos:station:WAVCIS:CSI06:1,2012-12-02T14:00:00Z,28.8667,-90.4833,10.0,3.645,121.0,,'11111222,11111222,99999999' 
WAVCIS,ioos:station:WAVCIS:CSI06:1,2012-12-02T15:00:00Z,28.8667,-90.4833,10.0,3.706,115.0,,'11111222,11111222,99999999' 
WAVCIS,ioos:station:WAVCIS:CSI06:1,2012-12-02T16:00:00Z,28.8667,-90.4833,10.0,3.414,92.0,,'11111222,11111222,99999999' 
WAVCIS,ioos:station:WAVCIS:CSI06:1,2012-12-02T17:00:00Z,28.8667,-90.4833,10.0,4.426,83.0,,'11111222,11111222,99999999' 
WAVCIS,ioos:station:WAVCIS:CSI06:1,2012-12-02T18:00:00Z,28.8667,-90.4833,10.0,5.883,134.0,,'11111222,11111222,99999999' 
WAVCIS,ioos:station:WAVCIS:CSI06:1,2012-12-02T19:00:00Z,28.8667,-90.4833,10.0,5.379,128.0,,'11111222,11111222,99999999' 
WAVCIS,ioos:station:WAVCIS:CSI06:1,2012-12-02T20:00:00Z,28.8667,-90.4833,10.0,5.621,123.0,,'11111222,11111222,99999999' 
WAVCIS,ioos:station:WAVCIS:CSI06:1,2012-12-02T21:00:00Z,28.8667,-90.4833,10.0,5.799,121.0,,'11111222,11111222,99999999' 
WAVCIS,ioos:station:WAVCIS:CSI06:1,2012-12-02T22:00:00Z,28.8667,-90.4833,10.0,5.642,112.0,,'11111222,11111222,99999999' 
WAVCIS,ioos:station:WAVCIS:CSI06:1,2012-12-02T23:00:00Z,28.8667,-90.4833,10.0,6.098,108.0,,'11111222,11111222,99999999' 
WAVCIS,ioos:station:WAVCIS:CSI06:1,2012-12-03T00:00:00Z,28.8667,-90.4833,10.0,6.675,109.0,,'11111222,11111222,99999999' 
WAVCIS,ioos:station:WAVCIS:CSI06:1,2012-12-03T01:00:00Z,28.8667,-90.4833,10.0,6.378,106.0,,'11111222,11111222,99999999' 
WAVCIS,ioos:station:WAVCIS:CSI06:1,2012-12-03T02:00:00Z,28.8667,-90.4833,10.0,7.07,108.0,,'11111222,11111222,99999999' 
WAVCIS,ioos:station:WAVCIS:CSI06:1,2012-12-03T03:00:00Z,28.8667,-90.4833,10.0,6.392,120.0,,'11111222,11111222,99999999' 
WAVCIS,ioos:station:WAVCIS:CSI06:1,2012-12-03T04:00:00Z,28.8667,-90.4833,10.0,6.92,120.0,,'11111222,11111222,99999999' 
WAVCIS,ioos:station:WAVCIS:CSI06:1,2012-12-03T05:00:00Z,28.8667,-90.4833,10.0,7.53,122.0,,'11111222,11111222,99999999' 
WAVCIS,ioos:station:WAVCIS:CSI06:1,2012-12-03T06:00:00Z,28.8667,-90.4833,10.0,8.35,119.0,,'11111222,11111222,99999999' 
WAVCIS,ioos:station:WAVCIS:CSI06:1,2012-12-03T07:00:00Z,28.8667,-90.4833,10.0,8.55,123.0,,'11111222,11111222,99999999' 
WAVCIS,ioos:station:WAVCIS:CSI06:1,2012-12-03T08:00:00Z,28.8667,-90.4833,10.0,7.25,122.0,,'11111222,11111222,99999999' 
WAVCIS,ioos:station:WAVCIS:CSI06:1,2012-12-03T09:00:00Z,28.8667,-90.4833,10.0,6.921,135.0,,'11111222,11111222,99999999' 
WAVCIS,ioos:station:WAVCIS:CSI06:1,2012-12-03T10:00:00Z,28.8667,-90.4833,10.0,7.87,134.0,,'11111222,11111222,99999999' 
WAVCIS,ioos:station:WAVCIS:CSI06:1,2012-12-03T11:00:00Z,28.8667,-90.4833,10.0,8.77,131.0,,'11111222,11111222,99999999' 
WAVCIS,ioos:station:WAVCIS:CSI06:1,2012-12-03T12:00:00Z,28.8667,-90.4833,10.0,7.95,134.0,,'11111222,11111222,99999999' 
WAVCIS,ioos:station:WAVCIS:CSI06:1,2012-12-03T13:00:00Z,28.8667,-90.4833,10.0,8.21,130.0,,'11111222,11111222,99999999' 
WAVCIS,ioos:station:WAVCIS:CSI06:1,2012-12-03T14:00:00Z,28.8667,-90.4833,10.0,8.21,136.0,,'11111222,11111222,99999999' 
WAVCIS,ioos:station:WAVCIS:CSI06:1,2012-12-03T15:00:00Z,28.8667,-90.4833,10.0,7.8,133.0,,'11111222,11111222,99999999' 
WAVCIS,ioos:station:WAVCIS:CSI06:1,2012-12-03T16:00:00Z,28.8667,-90.4833,10.0,7.88,132.0,,'11111222,11111222,99999999' 
WAVCIS,ioos:station:WAVCIS:CSI06:1,2012-12-03T17:00:00Z,28.8667,-90.4833,10.0,6.612,139.0,,'11111222,11111222,99999999' 
WAVCIS,ioos:station:WAVCIS:CSI06:1,2012-12-03T18:00:00Z,28.8667,-90.4833,10.0,7.65,142.0,,'11111222,11111222,99999999' 
WAVCIS,ioos:station:WAVCIS:CSI06:1,2012-12-03T19:00:00Z,28.8667,-90.4833,10.0,7.89,136.0,,'11111222,11111222,99999999' 
WAVCIS,ioos:station:WAVCIS:CSI06:1,2012-12-03T20:00:00Z,28.8667,-90.4833,10.0,8.44,133.0,,'11111222,11111222,99999999' 
WAVCIS,ioos:station:WAVCIS:CSI06:1,2012-12-03T21:00:00Z,28.8667,-90.4833,10.0,7.07,138.0,,'11111222,11111222,99999999' 
WAVCIS,ioos:station:WAVCIS:CSI06:1,2012-12-03T22:00:00Z,28.8667,-90.4833,10.0,7.88,134.0,,'11111222,11111222,99999999' 
WAVCIS,ioos:station:WAVCIS:CSI06:1,2012-12-03T23:00:00Z,28.8667,-90.4833,10.0,7.78,132.0,,'11111222,11111222,99999999' 
WAVCIS,ioos:station:WAVCIS:CSI06:1,2012-12-04T00:00:00Z,28.8667,-90.4833,10.0,7.54,131.0,,'11111222,11111222,99999999' 
WAVCIS,ioos:station:WAVCIS:CSI06:1,2012-12-04T01:00:00Z,28.8667,-90.4833,10.0,8.82,130.0,,'11111222,11111222,99999999' 
WAVCIS,ioos:station:WAVCIS:CSI06:1,2012-12-04T02:00:00Z,28.8667,-90.4833,10.0,9.72,126.0,,'11111222,11111222,99999999' 
WAVCIS,ioos:station:WAVCIS:CSI06:1,2012-12-04T03:00:00Z,28.8667,-90.4833,10.0,8.8,131.0,,'11111222,11111222,99999999' 
WAVCIS,ioos:station:WAVCIS:CSI06:1,2012-12-04T04:00:00Z,28.8667,-90.4833,10.0,8.72,135.0,,'11111222,11111222,99999999' 
WAVCIS,ioos:station:WAVCIS:CSI06:1,2012-12-04T05:00:00Z,28.8667,-90.4833,10.0,7.99,137.0,,'11111222,11111222,99999999' 
WAVCIS,ioos:station:WAVCIS:CSI06:1,2012-12-04T06:00:00Z,28.8667,-90.4833,10.0,7.48,140.0,,'11111222,11111222,99999999' 
WAVCIS,ioos:station:WAVCIS:CSI06:1,2012-12-04T07:00:00Z,28.8667,-90.4833,10.0,7.42,137.0,,'11111222,11111222,99999999' 
WAVCIS,ioos:station:WAVCIS:CSI06:1,2012-12-04T08:00:00Z,28.8667,-90.4833,10.0,7.73,142.0,,'11111222,11111222,99999999' 
WAVCIS,ioos:station:WAVCIS:CSI06:1,2012-12-04T09:00:00Z,28.8667,-90.4833,10.0,8.25,142.0,,'11111222,11111222,99999999' 
WAVCIS,ioos:station:WAVCIS:CSI06:1,2012-12-04T10:00:00Z,28.8667,-90.4833,10.0,8.02,142.0,,'11111222,11111222,99999999' 
WAVCIS,ioos:station:WAVCIS:CSI06:1,2012-12-04T11:00:00Z,28.8667,-90.4833,10.0,8.45,138.0,,'11111222,11111222,99999999' 
WAVCIS,ioos:station:WAVCIS:CSI06:1,2012-12-04T12:00:00Z,28.8667,-90.4833,10.0,8.77,142.0,,'11111222,11111222,99999999' 
WAVCIS,ioos:station:WAVCIS:CSI06:1,2012-12-04T13:00:00Z,28.8667,-90.4833,10.0,8.36,140.0,,'11111222,11111222,99999999' 
WAVCIS,ioos:station:WAVCIS:CSI06:1,2012-12-04T14:00:00Z,28.8667,-90.4833,10.0,7.63,143.0,,'11111222,11111222,99999999' 
WAVCIS,ioos:station:WAVCIS:CSI06:1,2012-12-04T15:00:00Z,28.8667,-90.4833,10.0,8.38,140.0,,'11111222,11111222,99999999' 
WAVCIS,ioos:station:WAVCIS:CSI06:1,2012-12-04T16:00:00Z,28.8667,-90.4833,10.0,6.67,182.0,,'11111222,11111222,99999999' 
WAVCIS,ioos:station:WAVCIS:CSI06:1,2012-12-04T17:00:00Z,28.8667,-90.4833,10.0,6.676,142.0,,'11111222,11111222,99999999' 
WAVCIS,ioos:station:WAVCIS:CSI06:1,2012-12-04T18:00:00Z,28.8667,-90.4833,10.0,5.4,160.0,,'11111222,11111222,99999999' 
WAVCIS,ioos:station:WAVCIS:CSI06:1,2012-12-04T19:00:00Z,28.8667,-90.4833,10.0,4.527,155.0,,'11111222,11111222,99999999' 
WAVCIS,ioos:station:WAVCIS:CSI06:1,2012-12-04T20:00:00Z,28.8667,-90.4833,10.0,4.84,139.0,,'11111222,11111222,99999999' 
WAVCIS,ioos:station:WAVCIS:CSI06:1,2012-12-04T21:00:00Z,28.8667,-90.4833,10.0,4.072,110.0,,'11111222,11111222,99999999' 
WAVCIS,ioos:station:WAVCIS:CSI06:1,2012-12-04T22:00:00Z,28.8667,-90.4833,10.0,6.078,117.0,,'11111222,11111222,99999999' 
WAVCIS,ioos:station:WAVCIS:CSI06:1,2012-12-04T23:00:00Z,28.8667,-90.4833,10.0,4.344,120.0,,'11111222,11111222,99999999' 
WAVCIS,ioos:station:WAVCIS:CSI06:1,2012-12-05T00:00:00Z,28.8667,-90.4833,10.0,5.561,127.0,,'11111222,11111222,99999999' 
WAVCIS,ioos:station:WAVCIS:CSI06:1,2012-12-05T01:00:00Z,28.8667,-90.4833,10.0,2.535,214.0,,'11111222,11111222,99999999' 
WAVCIS,ioos:station:WAVCIS:CSI06:1,2012-12-05T02:00:00Z,28.8667,-90.4833,10.0,5.331,157.0,,'11111222,11111222,99999999' 
WAVCIS,ioos:station:WAVCIS:CSI06:1,2012-12-05T03:00:00Z,28.8667,-90.4833,10.0,4.007,214.0,,'11111222,11111222,99999999' 
WAVCIS,ioos:station:WAVCIS:CSI06:1,2012-12-05T04:00:00Z,28.8667,-90.4833,10.0,2.104,135.0,,'11111222,11111222,99999999' 
WAVCIS,ioos:station:WAVCIS:CSI06:1,2012-12-05T05:00:00Z,28.8667,-90.4833,10.0,3.269,317.0,,'11111222,11111222,99999999' 
WAVCIS,ioos:station:WAVCIS:CSI06:1,2012-12-05T06:00:00Z,28.8667,-90.4833,10.0,5.492,292.0,,'11111222,11111222,99999999' 
WAVCIS,ioos:station:WAVCIS:CSI06:1,2012-12-05T07:00:00Z,28.8667,-90.4833,10.0,7.26,64.0,,'11111222,11111222,99999999' 
WAVCIS,ioos:station:WAVCIS:CSI06:1,2012-12-05T08:00:00Z,28.8667,-90.4833,10.0,3.19,66.0,,'11111222,11111222,99999999' 
WAVCIS,ioos:station:WAVCIS:CSI06:1,2012-12-05T09:00:00Z,28.8667,-90.4833,10.0,5.509,115.0,,'11111222,11111222,99999999' 
WAVCIS,ioos:station:WAVCIS:CSI06:1,2012-12-05T10:00:00Z,28.8667,-90.4833,10.0,9.3,133.0,,'11111222,11111222,99999999' 
WAVCIS,ioos:station:WAVCIS:CSI06:1,2012-12-05T11:00:00Z,28.8667,-90.4833,10.0,7.48,171.0,,'11111222,11111222,99999999' 
WAVCIS,ioos:station:WAVCIS:CSI06:1,2012-12-05T12:00:00Z,28.8667,-90.4833,10.0,5.279,175.0,,'11111222,11111222,99999999' 
WAVCIS,ioos:station:WAVCIS:CSI06:1,2012-12-05T13:00:00Z,28.8667,-90.4833,10.0,5.286,171.0,,'11111222,11111222,99999999' 
WAVCIS,ioos:station:WAVCIS:CSI06:1,2012-12-05T14:00:00Z,28.8667,-90.4833,10.0,7.54,121.0,,'11111222,11111222,99999999' 
WAVCIS,ioos:station:WAVCIS:CSI06:1,2012-12-05T15:00:00Z,28.8667,-90.4833,10.0,2.662,91.0,,'11111222,11111222,99999999' 
WAVCIS,ioos:station:WAVCIS:CSI06:1,2012-12-05T16:00:00Z,28.8667,-90.4833,10.0,4.323,122.0,,'11111222,11111222,99999999' 
WAVCIS,ioos:station:WAVCIS:CSI06:1,2012-12-05T17:00:00Z,28.8667,-90.4833,10.0,4.682,124.0,,'11111222,11111222,99999999' 
WAVCIS,ioos:station:WAVCIS:CSI06:1,2012-12-05T18:00:00Z,28.8667,-90.4833,10.0,2.739,151.0,,'11111222,11111222,99999999' 
WAVCIS,ioos:station:WAVCIS:CSI06:1,2012-12-05T19:00:00Z,28.8667,-90.4833,10.0,2.954,174.0,,'11111222,11111222,99999999' 
WAVCIS,ioos:station:WAVCIS:CSI06:1,2012-12-05T20:00:00Z,28.8667,-90.4833,10.0,5.611,110.0,,'11111222,11111222,99999999' 
WAVCIS,ioos:station:WAVCIS:CSI06:1,2012-12-05T21:00:00Z,28.8667,-90.4833,10.0,4.081,109.0,,'11111222,11111222,99999999' 
WAVCIS,ioos:station:WAVCIS:CSI06:1,2012-12-05T22:00:00Z,28.8667,-90.4833,10.0,2.659,96.0,,'11111222,11111222,99999999' 
WAVCIS,ioos:station:WAVCIS:CSI06:1,2012-12-05T23:00:00Z,28.8667,-90.4833,10.0,5.236,99.0,,'11111222,11111222,99999999' 
WAVCIS,ioos:station:WAVCIS:CSI06:1,2012-12-06T00:00:00Z,28.8667,-90.4833,10.0,3.083,114.0,,'11111222,11111222,99999999' 
WAVCIS,ioos:station:WAVCIS:CSI06:1,2012-12-06T01:00:00Z,28.8667,-90.4833,10.0,0.749,98.0,,'11111222,11111222,99999999' 
WAVCIS,ioos:station:WAVCIS:CSI06:1,2012-12-06T02:00:00Z,28.8667,-90.4833,10.0,3.494,36.0,,'11111222,11111222,99999999' 
WAVCIS,ioos:station:WAVCIS:CSI06:1,2012-12-06T03:00:00Z,28.8667,-90.4833,10.0,4.202,30.0,,'11111222,11111222,99999999' 
WAVCIS,ioos:station:WAVCIS:CSI06:1,2012-12-06T04:00:00Z,28.8667,-90.4833,10.0,5.704,45.0,,'11111222,11111222,99999999' 
WAVCIS,ioos:station:WAVCIS:CSI06:1,2012-12-06T05:00:00Z,28.8667,-90.4833,10.0,5.15,57.0,,'11111222,11111222,99999999' 
WAVCIS,ioos:station:WAVCIS:CSI06:1,2012-12-06T06:00:00Z,28.8667,-90.4833,10.0,4.468,81.0,,'11111222,11111222,99999999' 
WAVCIS,ioos:station:WAVCIS:CSI06:1,2012-12-06T07:00:00Z,28.8667,-90.4833,10.0,3.624,96.0,,'11111222,11111222,99999999' 
WAVCIS,ioos:station:WAVCIS:CSI06:1,2012-12-06T08:00:00Z,28.8667,-90.4833,10.0,3.479,108.0,,'11111222,11111222,99999999' 
WAVCIS,ioos:station:WAVCIS:CSI06:1,2012-12-06T09:00:00Z,28.8667,-90.4833,10.0,1.587,86.0,,'11111222,11111222,99999999' 
WAVCIS,ioos:station:WAVCIS:CSI06:1,2012-12-06T10:00:00Z,28.8667,-90.4833,10.0,3.536,21.0,,'11111222,11111222,99999999' 
WAVCIS,ioos:station:WAVCIS:CSI06:1,2012-12-06T11:00:00Z,28.8667,-90.4833,10.0,1.642,356.0,,'11111222,11111222,99999999' 
WAVCIS,ioos:station:WAVCIS:CSI06:1,2012-12-06T12:00:00Z,28.8667,-90.4833,10.0,5.393,25.0,,'11111222,11111222,99999999' 
WAVCIS,ioos:station:WAVCIS:CSI06:1,2012-12-06T13:00:00Z,28.8667,-90.4833,10.0,3.982,37.0,,'11111222,11111222,99999999' 
WAVCIS,ioos:station:WAVCIS:CSI06:1,2012-12-06T14:00:00Z,28.8667,-90.4833,10.0,3.729,4.0,,'11111222,11111222,99999999' 
WAVCIS,ioos:station:WAVCIS:CSI06:1,2012-12-06T15:00:00Z,28.8667,-90.4833,10.0,5.415,334.0,,'11111222,11111222,99999999' 
WAVCIS,ioos:station:WAVCIS:CSI06:1,2012-12-06T16:00:00Z,28.8667,-90.4833,10.0,6.383,332.0,,'11111222,11111222,99999999' 
WAVCIS,ioos:station:WAVCIS:CSI06:1,2012-12-06T17:00:00Z,28.8667,-90.4833,10.0,5.525,334.0,,'11111222,11111222,99999999' 
WAVCIS,ioos:station:WAVCIS:CSI06:1,2012-12-06T18:00:00Z,28.8667,-90.4833,10.0,4.755,56.0,,'11111222,11111222,99999999' 
WAVCIS,ioos:station:WAVCIS:CSI06:1,2012-12-06T19:00:00Z,28.8667,-90.4833,10.0,2.101,38.0,,'11111222,11111222,99999999' 
WAVCIS,ioos:station:WAVCIS:CSI06:1,2012-12-06T20:00:00Z,28.8667,-90.4833,10.0,2.708,39.0,,'11111222,11111222,99999999' 
WAVCIS,ioos:station:WAVCIS:CSI06:1,2012-12-06T21:00:00Z,28.8667,-90.4833,10.0,3.806,25.0,,'11111222,11111222,99999999' 
WAVCIS,ioos:station:WAVCIS:CSI06:1,2012-12-06T22:00:00Z,28.8667,-90.4833,10.0,2.578,37.0,,'11111222,11111222,99999999' 
WAVCIS,ioos:station:WAVCIS:CSI06:1,2012-12-06T23:00:00Z,28.8667,-90.4833,10.0,1.883,320.0,,'11111222,11111222,99999999' 
WAVCIS,ioos:station:WAVCIS:CSI06:1,2012-12-07T00:00:00Z,28.8667,-90.4833,10.0,2.234,324.0,,'11111222,11111222,99999999' 
WAVCIS,ioos:station:WAVCIS:CSI06:1,2012-12-07T01:00:00Z,28.8667,-90.4833,10.0,3.014,307.0,,'11111222,11111222,99999999' 
WAVCIS,ioos:station:WAVCIS:CSI06:1,2012-12-07T02:00:00Z,28.8667,-90.4833,10.0,3.177,325.0,,'11111222,11111222,99999999' 
WAVCIS,ioos:station:WAVCIS:CSI06:1,2012-12-07T03:00:00Z,28.8667,-90.4833,10.0,1.892,344.0,,'11111222,11111222,99999999' 
WAVCIS,ioos:station:WAVCIS:CSI06:1,2012-12-07T04:00:00Z,28.8667,-90.4833,10.0,1.148,3.0,,'11111222,11111222,99999999' 
WAVCIS,ioos:station:WAVCIS:CSI06:1,2012-12-07T05:00:00Z,28.8667,-90.4833,10.0,2.349,299.0,,'11111222,11111222,99999999' 
WAVCIS,ioos:station:WAVCIS:CSI06:1,2012-12-07T06:00:00Z,28.8667,-90.4833,10.0,1.056,314.0,,'11111222,11111222,99999999' 
WAVCIS,ioos:station:WAVCIS:CSI06:1,2012-12-07T07:00:00Z,28.8667,-90.4833,10.0,3.287,286.0,,'11111222,11111222,99999999' 
WAVCIS,ioos:station:WAVCIS:CSI06:1,2012-12-07T08:00:00Z,28.8667,-90.4833,10.0,2.539,287.0,,'11111222,11111222,99999999' 
WAVCIS,ioos:station:WAVCIS:CSI06:1,2012-12-07T09:00:00Z,28.8667,-90.4833,10.0,4.124,293.0,,'11111222,11111222,99999999' 
WAVCIS,ioos:station:WAVCIS:CSI06:1,2012-12-07T10:00:00Z,28.8667,-90.4833,10.0,4.057,308.0,,'11111222,11111222,99999999' 
WAVCIS,ioos:station:WAVCIS:CSI06:1,2012-12-07T11:00:00Z,28.8667,-90.4833,10.0,4.465,302.0,,'11111222,11111222,99999999' 
WAVCIS,ioos:station:WAVCIS:CSI06:1,2012-12-07T12:00:00Z,28.8667,-90.4833,10.0,5.001,317.0,,'11111222,11111222,99999999' 
WAVCIS,ioos:station:WAVCIS:CSI06:1,2012-12-07T13:00:00Z,28.8667,-90.4833,10.0,4.598,322.0,,'11111222,11111222,99999999' 
WAVCIS,ioos:station:WAVCIS:CSI06:1,2012-12-07T14:00:00Z,28.8667,-90.4833,10.0,2.912,352.0,,'11111222,11111222,99999999' 
WAVCIS,ioos:station:WAVCIS:CSI06:1,2012-12-07T15:00:00Z,28.8667,-90.4833,10.0,3.203,344.0,,'11111222,11111222,99999999' 
WAVCIS,ioos:station:WAVCIS:CSI06:1,2012-12-07T16:00:00Z,28.8667,-90.4833,10.0,2.909,16.0,,'11111222,11111222,99999999' 
WAVCIS,ioos:station:WAVCIS:CSI06:1,2012-12-07T17:00:00Z,28.8667,-90.4833,10.0,2.52,13.0,,'11111222,11111222,99999999' 
WAVCIS,ioos:station:WAVCIS:CSI06:1,2012-12-07T18:00:00Z,28.8667,-90.4833,10.0,2.677,327.0,,'11111222,11111222,99999999' 
WAVCIS,ioos:station:WAVCIS:CSI06:1,2012-12-07T19:00:00Z,28.8667,-90.4833,10.0,3.127,319.0,,'11111222,11111222,99999999' 
WAVCIS,ioos:station:WAVCIS:CSI06:1,2012-12-07T20:00:00Z,28.8667,-90.4833,10.0,0.723,351.0,,'11111222,11111222,99999999' 
WAVCIS,ioos:station:WAVCIS:CSI06:1,2012-12-07T21:00:00Z,28.8667,-90.4833,10.0,0.967,337.0,,'11111222,11111222,99999999' 
WAVCIS,ioos:station:WAVCIS:CSI06:1,2012-12-07T22:00:00Z,28.8667,-90.4833,10.0,0.128,270.0,,'11111222,11111222,99999999' 
WAVCIS,ioos:station:WAVCIS:CSI06:1,2012-12-07T23:00:00Z,28.8667,-90.4833,10.0,2.134,256.0,,'11111222,11111222,99999999' 
WAVCIS,ioos:station:WAVCIS:CSI06:1,2012-12-08T00:00:00Z,28.8667,-90.4833,10.0,1.662,236.0,,'11111222,11111222,99999999' 
WAVCIS,ioos:station:WAVCIS:CSI06:1,2012-12-08T01:00:00Z,28.8667,-90.4833,10.0,1.919,242.0,,'11111222,11111222,99999999' 
WAVCIS,ioos:station:WAVCIS:CSI06:1,2012-12-08T02:00:00Z,28.8667,-90.4833,10.0,1.319,228.0,,'11111222,11111222,99999999' 
WAVCIS,ioos:station:WAVCIS:CSI06:1,2012-12-08T03:00:00Z,28.8667,-90.4833,10.0,2.206,215.0,,'11111222,11111222,99999999' 
WAVCIS,ioos:station:WAVCIS:CSI06:1,2012-12-08T04:00:00Z,28.8667,-90.4833,10.0,2.761,241.0,,'11111222,11111222,99999999' 
WAVCIS,ioos:station:WAVCIS:CSI06:1,2012-12-08T05:00:00Z,28.8667,-90.4833,10.0,2.439,248.0,,'11111222,11111222,99999999' 
WAVCIS,ioos:station:WAVCIS:CSI06:1,2012-12-08T06:00:00Z,28.8667,-90.4833,10.0,1.333,271.0,,'11111222,11111222,99999999' 
WAVCIS,ioos:station:WAVCIS:CSI06:1,2012-12-08T07:00:00Z,28.8667,-90.4833,10.0,0.713,200.0,,'11111222,11111222,99999999' 
WAVCIS,ioos:station:WAVCIS:CSI06:1,2012-12-08T08:00:00Z,28.8667,-90.4833,10.0,1.189,217.0,,'11111222,11111222,99999999' 
WAVCIS,ioos:station:WAVCIS:CSI06:1,2012-12-08T09:00:00Z,28.8667,-90.4833,10.0,1.798,235.0,,'11111222,11111222,99999999' 
WAVCIS,ioos:station:WAVCIS:CSI06:1,2012-12-08T10:00:00Z,28.8667,-90.4833,10.0,1.336,211.0,,'11111222,11111222,99999999' 
WAVCIS,ioos:station:WAVCIS:CSI06:1,2012-12-08T11:00:00Z,28.8667,-90.4833,10.0,1.146,258.0,,'11111222,11111222,99999999' 
WAVCIS,ioos:station:WAVCIS:CSI06:1,2012-12-08T12:00:00Z,28.8667,-90.4833,10.0,3.063,333.0,,'11111222,11111222,99999999' 
WAVCIS,ioos:station:WAVCIS:CSI06:1,2012-12-08T13:00:00Z,28.8667,-90.4833,10.0,3.208,343.0,,'11111222,11111222,99999999' 
WAVCIS,ioos:station:WAVCIS:CSI06:1,2012-12-08T14:00:00Z,28.8667,-90.4833,10.0,2.14,12.0,,'11111222,11111222,99999999' 
WAVCIS,ioos:station:WAVCIS:CSI06:1,2012-12-08T15:00:00Z,28.8667,-90.4833,10.0,1.2,69.0,,'11111222,11111222,99999999' 
WAVCIS,ioos:station:WAVCIS:CSI06:1,2012-12-08T16:00:00Z,28.8667,-90.4833,10.0,2.085,94.0,,'11111222,11111222,99999999' 
WAVCIS,ioos:station:WAVCIS:CSI06:1,2012-12-08T17:00:00Z,28.8667,-90.4833,10.0,2.332,111.0,,'11111222,11111222,99999999' 
WAVCIS,ioos:station:WAVCIS:CSI06:1,2012-12-08T18:00:00Z,28.8667,-90.4833,10.0,1.984,100.0,,'11111222,11111222,99999999' 
WAVCIS,ioos:station:WAVCIS:CSI06:1,2012-12-08T19:00:00Z,28.8667,-90.4833,10.0,3.318,194.0,,'11111222,11111222,99999999' 
WAVCIS,ioos:station:WAVCIS:CSI06:1,2012-12-08T20:00:00Z,28.8667,-90.4833,10.0,3.501,184.0,,'11111222,11111222,99999999' 
WAVCIS,ioos:station:WAVCIS:CSI06:1,2012-12-08T21:00:00Z,28.8667,-90.4833,10.0,3.592,210.0,,'11111222,11111222,99999999' 
WAVCIS,ioos:station:WAVCIS:CSI06:1,2012-12-08T22:00:00Z,28.8667,-90.4833,10.0,2.539,200.0,,'11111222,11111222,99999999' 
WAVCIS,ioos:station:WAVCIS:CSI06:1,2012-12-08T23:00:00Z,28.8667,-90.4833,10.0,3.144,188.0,,'11111222,11111222,99999999' 
WAVCIS,ioos:station:WAVCIS:CSI06:1,2012-12-09T00:00:00Z,28.8667,-90.4833,10.0,2.937,193.0,,'11111222,11111222,99999999' 
WAVCIS,ioos:station:WAVCIS:CSI06:1,2012-12-09T01:00:00Z,28.8667,-90.4833,10.0,2.097,189.0,,'11111222,11111222,99999999' 
WAVCIS,ioos:station:WAVCIS:CSI06:1,2012-12-09T02:00:00Z,28.8667,-90.4833,10.0,3.158,141.0,,'11111222,11111222,99999999' 
WAVCIS,ioos:station:WAVCIS:CSI06:1,2012-12-09T03:00:00Z,28.8667,-90.4833,10.0,4.228,137.0,,'11111222,11111222,99999999' 
WAVCIS,ioos:station:WAVCIS:CSI06:1,2012-12-09T04:00:00Z,28.8667,-90.4833,10.0,4.987,137.0,,'11111222,11111222,99999999' 
WAVCIS,ioos:station:WAVCIS:CSI06:1,2012-12-09T05:00:00Z,28.8667,-90.4833,10.0,5.793,140.0,,'11111222,11111222,99999999' 